Location: Namasale
(1.5000°N, 32.6167°E)
Time: 16:29:35
(UTC+00:00)

Vanguard 1 Rocket - Pass Details

Date: 28 April 2021
Orbit: 651 x 4225 km, 34.3° (Epoch: 17 May)

Event Time Altitude Azimuth Distance (km) Brightness Sun altitude
Rises 00:00:32 0° 223° (SW) 7,149 - -53.4°
Reaches altitude 10° 00:07:22 10° 208° (SSW) 6,667 - -51.9°
Exits shadow 00:17:16 20° 182° (S) 6,341 11.4 -49.7°
Maximum altitude 00:24:07 22° 163° (SSE) 6,358 11.5 -48.1°
Drops below altitude 10° 00:41:55 10° 119° (ESE) 7,175 12.2 -44.0°
Sets 00:49:32 0° 105° (ESE) 7,806 12.7 -42.2°
